Regional Weather Roundup
Issued by NWS Green Bay, WI

Home | Current Version | Previous Version | Text Only | Print | Product List | Glossary On
Versions: 1 2 3 4 5 6 7 8 9 10 11 12 13 14 15 16 17 18 19 20 21 22 23 24 25 26 27 28 29 30 31 32 33 34 35 36 37 38 39 40 41 42 43 44 45 46 47 48 49 50
000
ASUS43 KGRB 031710
RWRGRB

NORTH-CENTRAL AND NORTHEAST WISCONSIN REGIONAL WEATHER ROUNDUP
NATIONAL WEATHER SERVICE GREEN BAY WI
1200 PM CDT SUN MAY 03 2015

WIZ005-009-010>012-018-019-031800-
NORTH CENTRAL WISCONSIN

CITY           SKY/WX    TMP DP  RH WIND       PRES   REMARKS
IRONWOOD       MOSUNNY   75  52  43 W9G16     29.73S
MANITOWISH WTR MOSUNNY   72  54  52 S12       29.80R
ARBOR VITAE    SUNNY     72  51  48 SW9G18    29.81S
EAGLE RIVER    SUNNY     72  48  42 SW10      29.81S
LAND O LAKES   SUNNY     74  49  41 SW8       29.81S
RHINELANDER    SUNNY     73  52  47 S16       29.83R
PHILLIPS       MOSUNNY   71  53  53 SW12G20   29.80S
ANTIGO         SUNNY     70  52  52 S12G18    29.85F
TOMAHAWK       SUNNY     73  52  46 CALM      29.83S
MERRILL        SUNNY     71  53  52 S6        29.84S
$$

WIZ013-073-031800-
NORTHEAST WISCONSIN

CITY           SKY/WX    TMP DP  RH WIND       PRES   REMARKS
IRON MOUNTAIN  SUNNY     77  51  40 S12G22    29.80S
MARINETTE      PTSUNNY   75  52  43 S16G22    29.84S
OCONTO         PTSUNNY   75  52  44 SW12      29.85S
$$

WIZ017-030-035>037-045-031800-
CENTRAL WISCONSIN

CITY           SKY/WX    TMP DP  RH WIND       PRES   REMARKS
MEDFORD        MOSUNNY   70  52  54 S13       29.84R
WAUSAU         MOSUNNY   73  51  46 S10       29.82F
MOSINEE        SUNNY     72  52  49 S9        29.85F
MARSHFIELD     MOSUNNY   74  51  44 S15       29.83F
WISC RAPIDS    MOSUNNY   75  49  39 SW12      29.85F
STEVENS POINT  MOSUNNY   73  50  44 S9        29.85S
WAUPACA        PTSUNNY   78  50  36 S8G16     29.86F
SHAWANO        PTSUNNY   77  50  38 SW10G16   29.86S
CLINTONVILLE   PTSUNNY   73  48  40 SW16      29.86S
$$

WIZ038-039-048-051-031800-
FOX VALLEY

CITY           SKY/WX    TMP DP  RH WIND       PRES   REMARKS
NWS GREEN BAY  PTSUNNY   75  50  41 SW13G22   29.86F
APPLETON       PTSUNNY   73  48  40 SW21      29.88F
OSHKOSH        PTSUNNY   75  51  43 SW13G26   29.87F
FOND DU LAC    PTSUNNY   77  49  37 SW17G28   29.88S
$$

WIZ022-050-052-031800-
EAST CENTRAL WISCONSIN

CITY           SKY/WX    TMP DP  RH WIND       PRES   REMARKS
STURGEON BAY   PTSUNNY   70  50  49 S12       29.89S
MANITOWOC      PTSUNNY   68  47  46 S15       29.90S
SHEBOYGAN      PTSUNNY   75  49  39 S12G21    29.89F
$$

LMZ563-521-522-541>543-031800-
LAKESHORE

STATION/POSITION TIME  TEMP    WIND        PRES    VSBY  WAVE
                       AIR SEA DIR/SP/G                  HT/PER
                 (UTC) (F)     (DEG/KT/KT) (MB)    (MI)  (FT/S)
SHEBOYGAN LKSHOR 1700   47     160/ 20/ 20 1013.1S
KEWAUNEE LKSHORE 1700   49     180/ 14/ 16 1011.7F
NORTHPORT PIER   1700   55     140/  8/ 13 1011.9R
SISTER BAY LKSHO 1700   72     190/ 10/ 13   N/A
CHAMBERS ISLAND  1700   70     190/  9/ 18 1011.5R
MENOMINEE LKSHOR 1700   67     170/ 12/ 16 1011.3F
$$


USA.gov is the U.S. government's official web portal to all federal, state and local government web resources and services.